This is the latest recevied weather packets stored in our database for station/object HB9TJR-3. If no packets are shown the sender has not sent any weather packets the latest 10 day(s).
| Time | Temp. | Humidity | Pressure | Rain* | Wind** | Luminosity | Snow |
|---|---|---|---|---|---|---|---|
| 1777917094 | 8.33° C | 89% | 863.6 hPa | 0 mm | - | - | - |
| 1777916134 | 8.33° C | 90% | 863.6 hPa | 0 mm | - | - | - |
| 1777915174 | 8.33° C | 90% | 863.7 hPa | 0 mm | - | - | - |
| 1777914214 | 8.33° C | 90% | 863.8 hPa | 0 mm | - | - | - |
| 1777913254 | 8.33° C | 89% | 864 hPa | 0 mm | - | - | - |
| 1777912294 | 8.33° C | 89% | 864.1 hPa | 0 mm | - | - | - |
| 1777911334 | 8.33° C | 88% | 864.2 hPa | 0 mm | - | - | - |
| 1777910374 | 8.33° C | 88% | 864.3 hPa | 0 mm | - | - | - |
| 1777909414 | 8.33° C | 88% | 864.5 hPa | 0 mm | - | - | - |
| 1777908454 | 7.78° C | 88% | 864.6 hPa | 0 mm | - | - | - |
| 1777907494 | 7.78° C | 88% | 864.7 hPa | 0 mm | - | - | - |
| 1777906534 | 8.33° C | 88% | 864.8 hPa | 0 mm | - | - | - |
| 1777905574 | 8.33° C | 89% | 864.8 hPa | 0 mm | - | - | - |
| 1777904614 | 8.33° C | 90% | 864.9 hPa | 0 mm | - | - | - |
| 1777902694 | 8.33° C | 91% | 865 hPa | 0 mm | - | - | - |
| 1777901734 | 8.89° C | 93% | 864.9 hPa | 0 mm | - | - | - |
| 1777900774 | 8.89° C | 96% | 864.8 hPa | 0 mm | - | - | - |
| 1777899814 | 8.33° C | 95% | 864.9 hPa | 0 mm | - | - | - |
| 1777898855 | 8.89° C | 91% | 864.9 hPa | 0 mm | - | - | - |
| 1777897894 | 8.89° C | 88% | 864.8 hPa | 0 mm | - | - | - |
| 1777896934 | 9.44° C | 85% | 864.7 hPa | 0 mm | - | - | - |
| 1777895974 | 9.44° C | 83% | 864.7 hPa | 0 mm | - | - | - |
| 1777895014 | 9.44° C | 88% | 864.8 hPa | 0 mm | - | - | - |
| 1777894054 | 9.44° C | 91% | 864.9 hPa | 0 mm | - | - | - |
| 1777893094 | 9.44° C | 89% | 864.8 hPa | 0 mm | - | - | - |
* Rain latest hour (hover to see other rain measurements)
** Current wind speed in m/s (hover to see current wind gust speed)